Location: Forli
(44.2227°N, 12.0407°E)
Time: 23:50:22
(UTC+02:00)

PCSat - Pass Details

Date: 16 April 2026
Orbit: 781 x 790 km, 67.1° (Epoch: 19 May)

Event Time Altitude Azimuth Distance (km) Brightness Sun altitude
Rises 22:27:14 0° 337° (NNW) 3,294 13.9 -24.0°
Reaches altitude 10° 22:31:00 10° 3° (N) 2,362 12.6 -24.4°
Maximum altitude 22:33:41 14° 33° (NNE) 2,111 11.9 -24.8°
Enters shadow 22:35:49 11° 57° (ENE) 2,272 11.8 -25.0°
